| time (UTC) | temp F | wind direction | speed knots | gust knots | rain 1hr in | rain 24hr in | rain mn in | humidity % | barometer mb |
| 20260502194551 | 65 | 136 | 0.0 | 3.5 | 0.00 | 0.00 | 0.00 | 23 | 1011.7 |
| 20260502193042 | 66 | 109 | 1.7 | 7.8 | 0.00 | 0.00 | 0.00 | 21 | 1011.6 |
| 20260502191600 | 64 | 154 | 0.0 | 2.6 | 0.00 | 0.00 | 0.00 | 23 | 1011.8 |
| 20260502190007 | 63 | 97 | 0.0 | 5.2 | 0.00 | 0.00 | 0.00 | 25 | 1012.0 |
| 20260502184520 | 65 | 128 | 1.7 | 6.1 | 0.00 | 0.00 | 0.00 | 21 | 1012.0 |
| 20260502183017 | 65 | 183 | 0.0 | 6.1 | 0.00 | 0.00 | 0.00 | 22 | 1012.3 |
| 20260502181531 | 63 | 197 | 0.0 | 7.0 | 0.00 | 0.00 | 0.00 | 26 | 1012.6 |
| 20260502163052 | 61 | 211 | 0.0 | 6.1 | 0.00 | 0.00 | 0.00 | 26 | 1014.0 |
| 20260502161620 | 61 | 207 | 0.9 | 7.0 | 0.00 | 0.00 | 0.00 | 29 | 1014.4 |
| 20260502151530 | 55 | 188 | 0.0 | 4.3 | 0.00 | 0.00 | 0.00 | 35 | 1014.5 |
| 20260502130106 | 51 | 144 | 0.0 | 3.5 | 0.00 | 0.00 | 0.00 | 41 | 1014.5 |
| 20260502123033 | 51 | 146 | 0.0 | 3.5 | 0.00 | 0.00 | 0.00 | 42 | 1014.5 |
| 20260502121545 | 51 | 135 | 0.0 | 0.0 | 0.00 | 0.00 | 0.00 | 42 | 1014.5 |
| 20260502114502 | 50 | 139 | 0.0 | 0.0 | 0.00 | 0.00 | 0.00 | 42 | 1014.0 |
| 20260502113134 | 50 | 139 | 0.0 | 0.0 | 0.00 | 0.00 | 0.00 | 41 | 1014.0 |
| 20260502111525 | 50 | 141 | 0.0 | 0.0 | 0.00 | 0.00 | 0.00 | 40 | 1014.0 |
| 20260502110023 | 50 | 144 | 0.0 | 0.0 | 0.00 | 0.00 | 0.00 | 40 | 1013.9 |
| 20260502104534 | 50 | 116 | 0.0 | 0.0 | 0.00 | 0.00 | 0.00 | 40 | 1014.0 |
| 20260502103031 | 50 | 117 | 0.0 | 0.0 | 0.00 | 0.00 | 0.00 | 39 | 1014.0 |
| 20260502101550 | 51 | 114 | 0.0 | 0.0 | 0.00 | 0.00 | 0.00 | 40 | 1014.1 |
| 20260502091524 | 51 | 106 | 0.0 | 0.0 | 0.00 | 0.00 | 0.00 | 44 | 1013.9 |
| 20260502071536 | 53 | 130 | 0.0 | 0.0 | 0.00 | 0.00 | 0.00 | 56 | 1013.3 |
| 20260502070045 | 53 | 130 | 0.0 | 5.2 | 0.00 | 0.00 | 0.00 | 55 | 1013.4 |
| 20260502064557 | 53 | 120 | 0.0 | 2.6 | 0.00 | 0.00 | 0.00 | 55 | 1013.4 |
| 20260502063053 | 53 | 116 | 0.0 | 4.3 | 0.00 | 0.00 | 0.00 | 55 | 1013.5 |
| 20260502061512 | 54 | 172 | 0.0 | 0.0 | 0.00 | 0.00 | 0.00 | 54 | 1013.8 |
| 20260502060014 | 54 | 172 | 0.0 | 0.0 | 0.00 | 0.00 | 0.00 | 54 | 1013.7 |
| 20260502054535 | 55 | 172 | 0.0 | 0.0 | 0.00 | 0.00 | 0.00 | 54 | 1013.5 |
| 20260502053037 | 55 | 172 | 0.0 | 0.0 | 0.00 | 0.00 | 0.00 | 52 | 1013.4 |
| 20260502051604 | 55 | 172 | 0.0 | 0.0 | 0.00 | 0.00 | 0.00 | 52 | 1013.5 |
| 20260502050048 | 56 | 172 | 0.0 | 0.0 | 0.00 | 0.00 | 0.00 | 52 | 1013.5 |
| 20260502044506 | 57 | 170 | 0.0 | 2.6 | 0.00 | 0.00 | 0.00 | 52 | 1013.5 |
| 20260502043016 | 57 | 196 | 0.0 | 7.0 | 0.00 | 0.00 | 0.00 | 52 | 1013.4 |
| 20260502041522 | 57 | 149 | 0.0 | 0.9 | 0.00 | 0.00 | 0.00 | 52 | 1013.4 |
| 20260502040018 | 58 | 129 | 0.0 | 3.5 | 0.00 | 0.00 | 0.00 | 51 | 1013.3 |
| 20260502034526 | 58 | 134 | 0.0 | 7.0 | 0.00 | 0.00 | 0.00 | 51 | 1013.3 |
| 20260502033015 | 59 | 135 | 0.0 | 0.0 | 0.00 | 0.00 | 0.00 | 49 | 1012.9 |
| 20260502031547 | 60 | 146 | 0.0 | 0.9 | 0.00 | 0.00 | 0.00 | 47 | 1012.7 |
| 20260502030047 | 61 | 149 | 0.0 | 0.0 | 0.00 | 0.00 | 0.00 | 44 | 1012.7 |
| 20260502024509 | 61 | 135 | 0.0 | 3.5 | 0.00 | 0.00 | 0.00 | 42 | 1012.4 |
| 20260502023019 | 62 | 160 | 0.0 | 7.8 | 0.00 | 0.00 | 0.00 | 40 | 1012.1 |
| 20260502021541 | 62 | 126 | 0.0 | 4.3 | 0.00 | 0.00 | 0.00 | 44 | 1011.4 |
| 20260502020039 | 63 | 115 | 0.0 | 5.2 | 0.00 | 0.00 | 0.00 | 45 | 1011.3 |
| 20260502014600 | 63 | 125 | 0.0 | 0.0 | 0.00 | 0.00 | 0.00 | 45 | 1011.2 |
| 20260502014503 | 63 | 125 | 0.0 | 0.0 | 0.00 | 0.00 | 0.00 | 45 | 1011.2 |
| 20260502013010 | 63 | 113 | 0.9 | 6.1 | 0.00 | 0.00 | 0.00 | 45 | 1010.8 |
| 20260502011522 | 62 | 62 | 0.0 | 3.5 | 0.00 | 0.00 | 0.00 | 44 | 1010.7 |
| 20260502010026 | 63 | 22 | 0.0 | 3.5 | 0.00 | 0.00 | 0.00 | 43 | 1010.6 |
| 20260502004539 | 63 | 47 | 0.0 | 7.0 | 0.00 | 0.00 | 0.00 | 43 | 1010.3 |
| 20260502003050 | 63 | 82 | 0.0 | 0.0 | 0.00 | 0.00 | 0.00 | 43 | 1010.2 |
| 20260502001508 | 63 | 99 | 0.0 | 3.5 | 0.00 | 0.00 | 0.00 | 43 | 1009.7 |
| 20260502000018 | 63 | 84 | 0.0 | 5.2 | 0.00 | 0.00 | 0.00 | 42 | 1009.3 |
| 20260501234537 | 64 | 359 | 0.0 | 0.0 | 0.00 | 0.00 | 0.00 | 41 | 1009.3 |
| 20260501233029 | 65 | 352 | 0.0 | 0.0 | 0.00 | 0.00 | 0.00 | 40 | 1009.4 |
| 20260501231553 | 65 | 352 | 0.0 | 0.0 | 0.00 | 0.00 | 0.00 | 40 | 1009.4 |
| 20260501224514 | 67 | 332 | 2.6 | 10.4 | 0.00 | 0.00 | 0.00 | 36 | 1009.2 |
| 20260501223015 | 68 | 54 | 3.5 | 10.4 | 0.00 | 0.00 | 0.00 | 35 | 1009.3 |
| 20260501221542 | 68 | 316 | 0.0 | 0.0 | 0.00 | 0.00 | 0.00 | 35 | 1009.6 |
| 20260501220040 | 68 | 53 | 1.7 | 7.0 | 0.00 | 0.00 | 0.00 | 34 | 1009.6 |
| 20260501214555 | 68 | 1 | 0.9 | 11.3 | 0.00 | 0.00 | 0.00 | 34 | 1009.6 |
| 20260501213003 | 68 | 356 | 0.0 | 7.0 | 0.00 | 0.00 | 0.00 | 35 | 1009.9 |
| 20260501211519 | 68 | 301 | 0.0 | 7.0 | 0.00 | 0.00 | 0.00 | 35 | 1010.0 |
| 20260501210027 | 67 | 42 | 0.0 | 5.2 | 0.00 | 0.00 | 0.00 | 36 | 1010.2 |
| 20260501204539 | 67 | 316 | 0.0 | 0.0 | 0.00 | 0.00 | 0.00 | 34 | 1010.2 |
| 20260501203033 | 67 | 347 | 0.9 | 9.6 | 0.00 | 0.00 | 0.00 | 34 | 1010.5 |
| 20260501201555 | 67 | 326 | 2.6 | 7.8 | 0.00 | 0.00 | 0.00 | 34 | 1010.7 |
| 20260501200038 | 67 | 326 | 2.6 | 8.7 | 0.00 | 0.00 | 0.00 | 34 | 1010.8 |